Location: Buckenweiler
(49.0667°N, 10.2500°E)
Time: 19:30:07
(UTC+00:00)

Cosmos 407 Rocket - Pass Details

Date: 18 January 2026
Orbit: 738 x 782 km, 74.0° (Epoch: 14 February)

Event Time Altitude Azimuth Distance (km) Brightness Sun altitude
Rises 05:14:05 0° 193° (SSW) 3,170 6.7 -17.8°
Reaches altitude 10° 05:16:25 10° 191° (S) 2,256 5.9 -17.4°
Maximum altitude 05:21:29 68° 109° (ESE) 811 3.8 -16.6°
Drops below altitude 10° 05:26:39 10° 28° (NNE) 2,300 6.1 -15.8°
Sets 05:29:04 0° 26° (NNE) 3,237 6.9 -15.4°
